TimeCST,TemperatureF,Dew PointF,Humidity,Sea Level PressureIn,VisibilityMPH,Wind Direction,Wind SpeedMPH,Gust SpeedMPH,PrecipitationIn,Events,Conditions,WindDirDegrees,DateUTC
12:15 AM,61.3,51.8,71,29.84,10.0,SW,8.1,-,N/A,,Mostly Cloudy,230,2013-11-16 06:15:00
12:35 AM,61.3,51.4,70,29.83,10.0,WSW,6.9,-,N/A,,Mostly Cloudy,240,2013-11-16 06:35:00
12:55 AM,61.7,51.1,68,29.82,10.0,SW,5.8,-,N/A,,Mostly Cloudy,220,2013-11-16 06:55:00
1:15 AM,59.0,51.4,76,29.81,10.0,SSE,5.8,-,N/A,,Overcast,160,2013-11-16 07:15:00
1:35 AM,60.8,50.9,70,29.81,10.0,South,5.8,-,N/A,,Overcast,190,2013-11-16 07:35:00
1:55 AM,59.9,50.2,70,29.80,10.0,SSW,5.8,-,N/A,,Overcast,200,2013-11-16 07:55:00
2:15 AM,59.4,49.6,70,29.80,10.0,SSW,6.9,-,N/A,,Overcast,200,2013-11-16 08:15:00
2:35 AM,59.2,49.1,69,29.80,10.0,South,5.8,-,N/A,,Mostly Cloudy,180,2013-11-16 08:35:00
2:55 AM,58.3,48.6,70,29.80,10.0,South,4.6,-,N/A,,Mostly Cloudy,190,2013-11-16 08:55:00
3:15 AM,56.3,47.3,72,29.79,10.0,South,5.8,-,N/A,,Scattered Clouds,170,2013-11-16 09:15:00
3:35 AM,56.3,46.6,70,29.78,10.0,Calm,Calm,-,N/A,,Scattered Clouds,0,2013-11-16 09:35:00
3:55 AM,56.3,46.4,69,29.78,10.0,Calm,Calm,-,N/A,,Scattered Clouds,0,2013-11-16 09:55:00
4:15 AM,55.0,46.0,72,29.78,10.0,SSE,3.5,-,N/A,,Clear,150,2013-11-16 10:15:00
4:35 AM,54.1,46.2,75,29.78,10.0,South,4.6,-,N/A,,Clear,170,2013-11-16 10:35:00
4:55 AM,53.1,45.9,77,29.78,10.0,SSW,5.8,-,N/A,,Clear,210,2013-11-16 10:55:00
5:15 AM,51.1,45.5,81,29.77,10.0,SSW,6.9,-,N/A,,Clear,210,2013-11-16 11:15:00
5:35 AM,50.2,44.8,82,29.78,10.0,West,4.6,-,N/A,,Clear,270,2013-11-16 11:35:00
5:55 AM,50.2,45.0,82,29.78,10.0,Calm,Calm,-,N/A,,Clear,0,2013-11-16 11:55:00
6:15 AM,49.6,44.8,83,29.78,10.0,Calm,Calm,-,N/A,,Clear,0,2013-11-16 12:15:00
6:35 AM,49.5,44.8,84,29.79,10.0,Calm,Calm,-,N/A,,Clear,0,2013-11-16 12:35:00
6:55 AM,49.1,44.1,83,29.78,10.0,Calm,Calm,-,N/A,,Clear,0,2013-11-16 12:55:00
7:15 AM,49.5,44.8,84,29.79,10.0,Calm,Calm,-,N/A,,Clear,0,2013-11-16 13:15:00
7:35 AM,48.6,43.9,84,29.79,10.0,Calm,Calm,-,N/A,,Clear,0,2013-11-16 13:35:00
7:55 AM,47.3,44.2,89,29.80,10.0,North,3.5,-,N/A,,Clear,350,2013-11-16 13:55:00
8:15 AM,51.4,47.3,86,29.81,10.0,North,3.5,-,N/A,,Clear,360,2013-11-16 14:15:00
8:35 AM,54.1,47.5,78,29.82,10.0,North,3.5,-,N/A,,Clear,10,2013-11-16 14:35:00
8:55 AM,55.6,48.0,76,29.84,10.0,NNW,5.8,-,N/A,,Clear,340,2013-11-16 14:55:00
9:15 AM,58.3,49.1,71,29.84,10.0,NE,3.5,-,N/A,,Clear,40,2013-11-16 15:15:00
9:35 AM,59.9,49.5,68,29.85,10.0,NNE,3.5,-,N/A,,Clear,20,2013-11-16 15:35:00
9:55 AM,62.1,50.0,65,29.85,10.0,NNE,4.6,-,N/A,,Clear,20,2013-11-16 15:55:00
10:15 AM,64.2,49.6,59,29.85,10.0,NNE,4.6,-,N/A,,Clear,20,2013-11-16 16:15:00
10:35 AM,66.2,49.1,54,29.85,10.0,NNE,3.5,-,N/A,,Clear,30,2013-11-16 16:35:00
10:55 AM,67.5,49.1,52,29.84,10.0,NNE,3.5,-,N/A,,Clear,20,2013-11-16 16:55:00
11:15 AM,69.8,49.1,48,29.83,10.0,Calm,Calm,-,N/A,,Clear,0,2013-11-16 17:15:00
11:35 AM,72.5,48.2,42,29.82,10.0,Calm,Calm,-,N/A,,Scattered Clouds,0,2013-11-16 17:35:00
11:55 AM,75.2,47.8,38,29.81,10.0,East,4.6,-,N/A,,Mostly Cloudy,100,2013-11-16 17:55:00
12:15 PM,77.0,46.9,34,29.80,10.0,SSW,3.5,-,N/A,,Scattered Clouds,200,2013-11-16 18:15:00
12:35 PM,79.0,46.9,32,29.78,10.0,SW,8.1,-,N/A,,Scattered Clouds,230,2013-11-16 18:35:00
12:55 PM,79.7,46.8,31,29.77,10.0,SW,17.3,23.0,N/A,,Scattered Clouds,230,2013-11-16 18:55:00
1:15 PM,82.6,44.8,26,29.75,10.0,WSW,20.7,39.1,N/A,,Scattered Clouds,250,2013-11-16 19:15:00
1:35 PM,80.6,44.4,28,29.74,10.0,SW,20.7,25.3,N/A,,Mostly Cloudy,230,2013-11-16 19:35:00
1:55 PM,82.4,44.6,26,29.73,10.0,SW,20.7,25.3,N/A,,Scattered Clouds,230,2013-11-16 19:55:00
2:15 PM,82.9,44.1,25,29.72,10.0,West,20.7,28.8,N/A,,Scattered Clouds,260,2013-11-16 20:15:00
2:35 PM,82.6,44.1,26,29.72,10.0,WSW,21.9,33.4,N/A,,Scattered Clouds,240,2013-11-16 20:35:00
2:55 PM,82.8,43.2,25,29.71,10.0,WSW,25.3,32.2,N/A,,Scattered Clouds,240,2013-11-16 20:55:00
3:15 PM,82.9,43.3,25,29.70,10.0,WSW,20.7,28.8,N/A,,Scattered Clouds,240,2013-11-16 21:15:00
3:35 PM,82.9,44.2,26,29.70,10.0,WSW,23.0,33.4,N/A,,Scattered Clouds,240,2013-11-16 21:35:00
3:55 PM,82.6,44.1,26,29.69,10.0,SW,28.8,34.5,N/A,,Scattered Clouds,230,2013-11-16 21:55:00
4:15 PM,82.4,43.7,26,29.69,10.0,WSW,17.3,31.1,N/A,,Clear,240,2013-11-16 22:15:00
4:35 PM,82.0,43.5,26,29.70,10.0,SW,24.2,31.1,N/A,,Clear,230,2013-11-16 22:35:00
4:55 PM,81.3,43.7,26,29.70,10.0,WSW,19.6,32.2,N/A,,Clear,240,2013-11-16 22:55:00
5:15 PM,80.6,43.9,27,29.70,10.0,WSW,17.3,24.2,N/A,,Clear,240,2013-11-16 23:15:00
5:35 PM,79.3,44.1,29,29.70,10.0,SW,17.3,-,N/A,,Clear,230,2013-11-16 23:35:00
5:55 PM,77.9,43.9,30,29.70,10.0,WSW,13.8,-,N/A,,Clear,240,2013-11-16 23:55:00
6:15 PM,75.4,43.9,32,29.70,10.0,SW,10.4,-,N/A,,Clear,230,2013-11-17 00:15:00
6:35 PM,73.2,43.7,35,29.71,10.0,SW,9.2,-,N/A,,Clear,220,2013-11-17 00:35:00
6:55 PM,73.4,44.1,35,29.71,10.0,SSW,9.2,-,N/A,,Clear,210,2013-11-17 00:55:00
7:15 PM,70.7,43.7,38,29.72,10.0,SSW,6.9,-,N/A,,Clear,210,2013-11-17 01:15:00
7:35 PM,67.1,43.2,42,29.73,10.0,South,5.8,-,N/A,,Clear,180,2013-11-17 01:35:00
7:55 PM,66.4,43.0,43,29.73,10.0,South,6.9,-,N/A,,Clear,190,2013-11-17 01:55:00
8:15 PM,65.5,43.0,44,29.73,10.0,SSW,5.8,-,N/A,,Clear,200,2013-11-17 02:15:00
8:35 PM,65.1,43.3,45,29.73,10.0,South,9.2,-,N/A,,Clear,190,2013-11-17 02:35:00
8:55 PM,64.8,43.7,46,29.74,10.0,SSW,8.1,-,N/A,,Clear,210,2013-11-17 02:55:00
9:15 PM,64.6,43.7,47,29.75,10.0,SW,9.2,-,N/A,,Clear,230,2013-11-17 03:15:00
9:35 PM,64.6,44.2,48,29.75,10.0,SW,10.4,-,N/A,,Clear,230,2013-11-17 03:35:00
9:55 PM,64.9,44.6,48,29.76,10.0,SW,8.1,-,N/A,,Clear,230,2013-11-17 03:55:00
10:15 PM,62.1,44.1,52,29.77,10.0,WSW,3.5,-,N/A,,Clear,240,2013-11-17 04:15:00
10:35 PM,58.8,43.7,57,29.78,10.0,South,3.5,-,N/A,,Clear,190,2013-11-17 04:35:00
10:55 PM,59.5,43.9,56,29.78,10.0,South,3.5,-,N/A,,Clear,170,2013-11-17 04:55:00
11:15 PM,58.5,43.3,57,29.78,10.0,South,9.2,-,N/A,,Clear,180,2013-11-17 05:15:00
11:35 PM,59.2,44.1,57,29.78,10.0,South,6.9,-,N/A,,Clear,170,2013-11-17 05:35:00
11:55 PM,59.5,43.9,56,29.80,10.0,Calm,Calm,-,N/A,,Clear,0,2013-11-17 05:55:00